Upstream stations:
SHEF ID: TIFM7 Elk River near Tiff City, Mo
STATION TYPE:
Regulating: Stage = 15.00, Flow = 21304
PRECIP STAGE STAGE(2) RIV-FLOW BAT-LOAD
in ft ft cfs volt
Ccp-Rev Ccp-Rev Ccp-Rev Ccp-Rev Ccp-Rev
(US/Central)
06/26 00:00 0.00 3.74 3.74 387 11.09
06/26 01:00 0.00 3.75 3.74 392 11.09
06/26 02:00 0.00 3.75 3.74 392 11.06
06/26 03:00 0.00 3.74 3.74 387 11.07
06/26 04:00 0.00 3.74 3.74 387 11.08
06/26 05:00 0.00 3.74 3.73 387 11.11
06/26 06:00 0.00 3.74 3.74 387 11.02
06/26 07:00 0.00 3.74 3.73 387 10.98
06/26 08:00 0.00 3.73 3.73 383 11.96
06/26 09:00 0.00 3.73 3.73 383 11.68
06/26 10:00 0.00 3.72 3.69 378 12.00
06/26 11:00 0.00 3.72 3.71 378 12.20
06/26 12:00 0.00 3.72 3.70 378 12.17
06/26 13:00 0.00 3.72 3.72 378 12.08
06/26 14:00 0.00 3.72 3.71 378 12.62
06/26 15:00 0.00 3.72 3.72 378 12.67
06/26 16:00 0.00 3.72 3.72 378 12.61
06/26 17:00 0.00 3.72 3.71 378 12.46
06/26 18:00 0.00 3.72 3.72 378 12.30
06/26 19:00 0.00 3.71 3.72 374 12.17
06/26 20:00 0.00 3.71 3.71 374 12.04
06/26 21:00 0.00 3.71 3.71 374 11.71
06/26 22:00 0.00 3.70 3.70 370 11.63
06/26 23:00 0.00 3.70 3.70 370 11.59